Regional Weather Roundup
Issued by NWS

Home | Current Version | Previous Version | Graphics & Text | Print | Product List | Glossary On
Versions: 1 2 3 4 5 6 7 8 9 10 11 12 13 14 15 16 17 18 19 20 21 22 23 24 25 26 27 28 29 30 31 32 33 34 35 36 37 38 39 40 41 42 43 44 45 46 47 48 49 50
000
ASUS45 KBOI 271110
RWRID

IDAHO REGIONAL WEATHER ROUNDUP
NATIONAL WEATHER SERVICE BOISE ID
500 AM MDT FRI MAY 27 2016

NOTE: "FAIR" INDICATES FEW OR NO CLOUDS BELOW 12000 FEET
WITH NO SIGNIFICANT WEATHER AND/OR OBSTRUCTIONS TO VISIBILITY

IDZ012-014-271200-
SOUTHWEST IDAHO


CITY           SKY/WX    TMP DP  RH WIND       PRES   REMARKS
BOISE          CLEAR     51  39  63 NW13      29.94R
CALDWELL       CLEAR     52  39  61 W13       29.95R
MOUNTAIN HOME  PTCLDY    49  43  79 NW6       29.92S
$$

IDZ016-017-271200-
SOUTHCENTRAL IDAHO


CITY           SKY/WX    TMP DP  RH WIND       PRES   REMARKS
BURLEY         PTCLDY    50  39  66 SW10      29.92S
JEROME         CLEAR     50  40  68 S7        29.94S
TWIN FALLS     CLEAR     51  37  58 S12       29.94R
$$

IDZ019>023-271200-
SOUTHEAST IDAHO


CITY           SKY/WX    TMP DP  RH WIND       PRES   REMARKS
IDAHO FALLS    PTCLDY    45  38  76 SW9       29.93S
POCATELLO      MOCLDY    46  39  76 S7        29.95S
REXBURG        CLOUDY    44  40  85 NE6       29.94S
$$

IDZ006-010-011-018-031-032-271200-
CENTRAL IDAHO MOUNTAINS


CITY           SKY/WX    TMP DP  RH WIND       PRES   REMARKS
MCCALL         PTCLDY    38  35  89 CALM      29.94S
HAILEY         PTCLDY    41  36  81 NW6       29.97S
STANLEY          N/A     33  28  81 S3        30.00F
SALMON         PTCLDY    48  37  66 CALM      29.91S
CHALLIS        MOCLDY    46  39  76 CALM      29.93F
$$

IDZ002-004-006-007-026-271200-
NORTHERN IDAHO


CITY           SKY/WX    TMP DP  RH WIND       PRES   REMARKS
LEWISTON       CLOUDY    54  39  57 S7        29.98R
LOWELL           N/A     52  49  89 CALM      29.98R
COEUR D`ALENE  CLOUDY    48  39  71 S10       29.93R
MULLAN PASS    CLOUDY    36  32  85 NW6       29.95F WCI  31
$$



USA.gov is the U.S. government's official web portal to all federal, state and local government web resources and services.